Volver al catálogo

STARLINK-34251

ActivoComunicacionesVLEO
NORAD 64205·PAYLOAD·🇺🇸 United States

Lanzado May 31, 2025 desde Vandenberg Space Force Base

Loading…

Próximos Pases (próximas 24 horas)

TLE

ActualizadoSource: CelesTrak SupGP

Época: Sep 14, 2026, 21:23 UTC

1 64205C 25117C   26257.89145833  .00037694  00000+0  11138-2 0  2577
2 64205  53.1577 237.6174 0001397  91.7271  63.3742 15.34369185    15

Sigue STARLINK-34251 en tiempo real con AllMySat

Download on the App Store